Weather History for New Orleans Lakefront, LA

Change the Weather History Date:

Saturday, September 7, 2013

  Actual Average Record
Temperature  
Mean Temperature 82 °F 82 °F  
Max Temperature 90 °F 89 °F 94 °F (1980)
Min Temperature 73 °F 74 °F 63 °F (1984)
Degree Days  
Heating Degree Days 0 0  
Month to date heating degree days 0 0  
Since 1 July heating degree days 0 0  
Cooling Degree Days 17 17  
Month to date cooling degree days 129 119  
Year to date cooling degree days 2265 2365  
Growing Degree Days 36 (Base 50)    
Moisture  
Dew Point 75 °F    
Average Humidity 78    
Maximum Humidity 100    
Minimum Humidity 56    
Precipitation  
Precipitation 0.00 in 0.19 in 2.86 in (1974)
Month to date precipitation 3.37 1.35  
Year to date precipitation 53.68 45.56  
Snow  
Snow 0.00 in - - ()
Month to date snowfall 0.0  
Since 1 July snowfall 0.0  
Since 1 September snowfall 0.0  
Snow Depth 0.00 in    
Sea Level Pressure  
Sea Level Pressure 29.99 in    
Wind  
Wind Speed 4 mph (East)    
Max Wind Speed 15 mph    
Max Gust Speed 18 mph    
Visibility 8 miles    
Events      
T = Trace of Precipitation, MM = Missing Value Source: NWS Daily Summary

Daily Weather History Graph

Daily Weather History Graph

Search for Another Location

Airport:

Trip Planner

Search our weather history database for the weather conditions in past years. The results will help you decide how hot, cold, wet, or windy it might be!

Date:

Astronomy

Sep. 07, 2013 Rise Set
Actual Time 6:40 AM CDT 7:15 PM CDT
Civil Twilight 6:16 AM CDT 7:39 PM CDT
Nautical Twilight 5:47 AM CDT 8:07 PM CDT
Astronomical Twilight 5:19 AM CDT 8:36 PM CDT
Moon 8:41 AM CDT (9/7) 8:29 PM CDT (9/7)
Length of Visible Light 13h 22m
Length of Day
12h 34m
Waxing Crescent, 5% of the Moon is Illuminated
Sep 7
Waxing Crescent
Sep 12
First Quarter
Sep 19
Full
Sep 26
Last Quarter
Oct 4
New

Hourly Weather History & Observations

Time (CDT) Temp. Heat Index Dew Point Humidity Pressure Visibility Wind Dir Wind Speed Gust Speed Precip Events Conditions
12:53 AM 82.9 °F 90.2 °F 75.0 °F 77% 30.00 in 10.0 mi SE 3.5 mph - N/A   Clear
1:53 AM 82.9 °F 91.8 °F 77.0 °F 82% 29.99 in 9.0 mi ENE 4.6 mph - N/A   Clear
2:53 AM 82.9 °F 92.8 °F 78.1 °F 85% 29.98 in 7.0 mi East 4.6 mph - N/A   Clear
3:53 AM 82.9 °F 91.8 °F 77.0 °F 82% 29.98 in 7.0 mi East 3.5 mph - N/A   Clear
4:53 AM 82.9 °F 91.8 °F 77.0 °F 82% 29.98 in 7.0 mi ENE 8.1 mph - N/A   Clear
5:53 AM 82.9 °F 91.8 °F 77.0 °F 82% 29.99 in 7.0 mi ENE 9.2 mph - N/A   Clear
6:53 AM 82.9 °F 90.8 °F 75.9 °F 79% 30.01 in 7.0 mi NE 10.4 mph - N/A   Clear
7:53 AM 82.9 °F 90.8 °F 75.9 °F 79% 30.01 in 7.0 mi NE 10.4 mph - N/A   Clear
8:53 AM 84.9 °F 93.3 °F 75.0 °F 72% 30.03 in 7.0 mi NE 8.1 mph - N/A   Partly Cloudy
9:53 AM 86.0 °F 93.8 °F 73.9 °F 67% 30.04 in 8.0 mi ENE 9.2 mph - N/A   Partly Cloudy
10:53 AM 87.1 °F 95.4 °F 73.9 °F 65% 30.04 in 6.0 mi NE 10.4 mph - N/A   Haze
11:53 AM 88.0 °F 96.5 °F 73.9 °F 63% 30.04 in 7.0 mi NE 9.2 mph - N/A   Clear
12:53 PM 90.0 °F 99.0 °F 73.9 °F 59% 30.02 in 7.0 mi NNE 10.4 mph - N/A   Clear
1:53 PM 91.0 °F 100.4 °F 73.9 °F 57% 30.00 in 6.0 mi NNE 9.2 mph - N/A   Haze
2:53 PM 91.9 °F 99.5 °F 72.0 °F 52% 29.97 in 7.0 mi NNE 9.2 mph - N/A   Clear
3:53 PM 88.0 °F 93.8 °F 71.1 °F 57% 29.97 in 8.0 mi SE 11.5 mph - N/A   Mostly Cloudy
4:19 PM 87.8 °F 95.6 °F 73.4 °F 62% 29.99 in 8.0 mi SE 9.2 mph - N/A   Mostly Cloudy
4:53 PM 87.1 °F 94.5 °F 73.0 °F 63% 29.97 in 8.0 mi SSE 11.5 mph - N/A   Clear
5:53 PM 84.9 °F 92.1 °F 73.9 °F 69% 29.97 in 8.0 mi South 9.2 mph - N/A   Clear
6:53 PM 82.9 °F 88.8 °F 73.0 °F 72% 29.97 in 9.0 mi South 5.8 mph - N/A   Clear
7:53 PM 82.0 °F 87.4 °F 73.0 °F 74% 29.97 in 10.0 mi SSW 4.6 mph - N/A   Clear
8:53 PM 82.9 °F 89.4 °F 73.9 °F 74% 29.98 in 10.0 mi WSW 6.9 mph - N/A   Clear
9:53 PM 82.0 °F 87.9 °F 73.9 °F 76% 29.99 in 10.0 mi Calm Calm - N/A   Clear
10:53 PM 82.0 °F 88.6 °F 75.0 °F 79% 29.99 in 10.0 mi WSW 3.5 mph - N/A   Clear
11:53 PM 81.0 °F 86.2 °F 73.9 °F 79% 29.99 in 10.0 mi SW 4.6 mph - N/A   Clear